1529388000.2,27939,17.44,74486.8,11.65,-8.33,-9.67,0,*48
1529388001.42,27940,17.44,74488.8,11.65,-10.49,-11.73,0,*4E
1529388002.68,27941,17.44,74486.0,11.65,-11.51,-12.75,0,*42
1529388003.97,27942,17.44,74488.0,11.61,-11.55,-12.75,0,*41
1529388005.2,27943,17.44,74488.0,11.59,-10.97,-11.77,0,*45
1529388006.4,27944,17.44,74490.3,11.59,-11.41,-12.25,0,*4C
1529388007.66,27945,17.44,74490.0,11.57,-10.49,-11.29,0,*45
1529388008.9,27946,17.44,74488.3,11.57,-11.73,-13.11,0,*47
1529388010.14,27947,17.44,74488.5,11.53,-12.21,-14.29,0,*4A
1529388011.35,27948,17.44,74492.8,11.51,-13.47,-15.49,0,*41
1529388012.56,27949,17.44,74490.8,11.51,-14.61,-16.37,0,*49
1529388013.82,27950,17.44,74488.8,11.49,-14.11,-15.81,0,*41
1529388015.05,27951,17.44,74492.8,11.47,-14.65,-16.27,0,*42
1529388016.32,27952,17.44,74492.3,11.45,-13.97,-15.53,0,*49
1529388017.55,27953,17.44,74492.3,11.43,-12.61,-14.15,0,*45
1529388018.79,27954,17.44,74492.8,11.45,-13.51,-14.89,0,*43
1529388020.05,27955,17.44,74494.0,11.43,-13.87,-15.57,0,*4D
1529388021.25,27956,17.44,74492.3,11.43,-14.69,-16.45,0,*49
1529388022.52,27957,17.44,74490.5,11.41,-14.97,-16.65,0,*49
1529388023.76,27958,17.44,74486.0,11.39,-14.23,-16.13,0,*47
1529388024.97,27959,17.44,74490.8,11.35,-15.15,-16.93,0,*46
1529388026.22,27960,17.44,74494.3,11.35,-15.29,-17.07,0,*4F
1529388027.5,27961,17.44,74490.5,11.27,-16.51,-18.31,0,*4B
1529388028.7,27962,17.44,74488.3,11.25,-15.99,-17.49,0,*4D
1529388029.92,27963,17.44,74492.0,11.21,-16.45,-17.83,0,*4C
1529388031.16,27964,17.44,74490.0,11.19,-14.65,-15.75,0,*4B
1529388032.43,27965,17.44,74488.0,11.15,-14.51,-15.71,0,*45
1529388033.66,27966,17.44,74490.3,11.13,-14.89,-16.13,0,*42
1529388034.93,27967,17.44,74492.3,11.11,-15.15,-16.23,0,*46
1529388036.16,27968,17.44,74492.5,11.07,-15.07,-16.03,0,*4F
1529388037.39,27969,17.44,74490.8,11.01,-15.25,-16.13,0,*49
1529388038.62,27970,17.44,74490.3,10.99,-13.55,-14.23,0,*41
1529388039.88,27971,17.44,74488.3,10.95,-11.93,-12.21,0,*40
1529388041.13,27972,17.44,74494.8,10.93,-11.55,-11.73,0,*4B
1529388042.36,27973,17.44,74492.8,10.91,-10.23,-10.19,0,*45
1529388043.55,27974,17.44,74488.5,10.89,-9.19,-8.45,0,*4A
1529388044.76,27975,17.44,74492.5,10.85,-9.27,-8.11,0,*4B
1529388045.99,27976,17.44,74490.8,10.89,-9.53,-8.03,0,*44
1529388047.18,27977,17.44,74490.0,10.85,-8.67,-7.19,0,*4B
1529388048.42,27978,17.44,74488.8,10.83,-8.63,-7.31,0,*4C
1529388049.63,27979,17.44,74490.0,10.81,-8.93,-7.99,0,*42
1529388050.82,27980,17.44,74488.3,10.81,-8.37,-7.49,0,*47
1529388052.04,27981,17.44,74494.0,10.79,-7.19,-6.51,0,*4A
1529388053.28,27982,17.44,74490.8,10.79,-6.43,-6.27,0,*46
1529388054.47,27983,17.44,74488.5,10.77,-7.11,-6.89,0,*4B
1529388055.7,27984,17.44,74490.0,10.77,-7.77,-7.65,0,*4F
1529388056.91,27985,17.44,74492.3,10.77,-8.51,-8.71,0,*4F
1529388058.11,27986,17.44,74488.8,10.77,-10.23,-10.23,0,*4E
1529388059.33,27987,17.44,74488.8,10.77,-10.89,-10.75,0,*4C
1529388060.58,27988,17.44,74488.5,10.73,-11.77,-11.89,0,*45
1529388061.81,27989,17.44,74490.3,10.73,-11.93,-12.21,0,*4F
1529388063.06,27990,17.44,74488.5,10.75,-12.39,-12.11,0,*41
1529388064.31,27991,17.44,74490.8,10.73,-12.07,-11.89,0,*49
1529388065.56,27992,17.44,74488.3,10.73,-11.37,-11.37,0,*4F
1529388066.81,27993,17.44,74492.0,10.69,-11.67,-11.29,0,*4F
1529388068.04,27994,17.44,74486.8,10.69,-10.97,-10.71,0,*4A
1529388069.26,27995,17.44,74490.5,10.69,-9.75,-9.61,0,*46
1529388070.47,27996,17.44,74490.3,10.69,-9.67,-9.45,0,*40
1529388071.71,27997,17.44,74490.8,10.71,-8.81,-8.29,0,*4A
1529388072.92,27998,17.44,74488.3,10.73,-9.61,-9.97,0,*4C
1529388074.14,27999,17.44,74492.5,10.75,-10.23,-9.75,0,*79
1529388075.32,28000,17.44,74488.3,10.77,-9.71,-9.27,0,*45
1529388076.54,28001,17.44,74488.5,10.79,-9.67,-9.93,0,*42
1529388077.76,28002,17.44,74486.5,10.83,-10.31,-11.23,0,*4D
1529388079.01,28003,17.44,74488.3,10.83,-10.27,-11.29,0,*41
1529388080.26,28004,17.44,74488.0,10.85,-11.37,-12.79,0,*46
1529388081.51,28005,17.44,74484.3,10.85,-11.55,-12.79,0,*43
1529388082.71,28006,17.44,74492.0,10.89,-11.11,-12.43,0,*45
1529388083.93,28007,17.44,74486.0,10.89,-11.33,-12.93,0,*49
1529388085.16,28008,17.44,74490.3,10.93,-11.41,-12.83,0,*49
1529388086.38,28009,17.44,74490.8,10.93,-12.11,-13.55,0,*44
1529388087.58,28010,17.44,74490.5,10.97,-12.21,-13.65,0,*48
1529388088.86,28011,17.44,74488.8,10.95,-11.85,-13.33,0,*45
1529388090.11,28012,17.44,74486.5,10.97,-11.59,-12.79,0,*4A
1529388091.3,28013,17.44,74488.8,10.97,-10.09,-11.45,0,*43
1529388092.49,28014,17.44,74488.5,10.97,-9.79,-11.45,0,*7B
1529388093.71,28015,17.44,74488.3,10.97,-9.79,-11.63,0,*7E
1529388094.94,28016,17.44,74490.5,10.99,-10.35,-11.45,0,*47
1529388096.17,28017,17.44,74488.0,11.01,-11.33,-12.89,0,*42
1529388097.39,28018,17.44,74490.3,10.99,-11.19,-13.11,0,*45
1529388098.61,28019,17.44,74490.0,10.99,-8.71,-10.57,0,*73
1529388099.86,28020,17.44,74490.8,10.99,-8.55,-10.75,0,*7F
1529388101.06,28021,17.44,74490.8,10.97,-9.01,-12.29,0,*7B
1529388102.25,28022,17.44,74490.8,10.97,-9.97,-12.93,0,*76
1529388103.45,28023,17.44,74490.3,11.01,-9.75,-12.39,0,*75
1529388104.7,28024,17.44,74488.5,11.01,-10.35,-12.71,0,*42
1529388105.9,28025,17.44,74488.3,11.01,-10.49,-12.29,0,*45
1529388107.13,28026,17.44,74490.0,11.05,-9.83,-11.11,0,*74
1529388108.36,28027,17.44,74490.0,11.05,-9.89,-10.79,0,*70
1529388109.6,28028,17.44,74490.0,11.11,-10.35,-11.15,0,*4E
1529388110.86,28029,17.44,74488.5,11.07,-11.51,-12.47,0,*4F
1529388112.11,28030,17.44,74486.8,11.11,-12.39,-13.29,0,*44
1529388113.37,28031,17.44,74488.3,11.07,-10.53,-11.77,0,*45
1529388114.6,28032,17.44,74490.0,11.13,-10.45,-11.89,0,*45
1529388115.84,28033,17.44,74488.0,11.13,-11.15,-12.83,0,*49
1529388117.08,28034,17.44,74490.5,11.15,-11.23,-13.19,0,*4F
1529388118.34,28035,17.44,74488.5,11.15,-10.15,-11.85,0,*4D
1529388119.58,28036,17.44,74490.8,11.15,-9.31,-10.53,0,*7A
1529388120.82,28037,17.44,74488.5,11.17,-10.89,-12.35,0,*40
1529388122.08,28038,17.44,74490.0,11.15,-10.75,-12.39,0,*42
1529388123.34,28039,17.44,74490.0,11.17,-11.67,-13.37,0,*4C
1529388124.6,28040,17.44,74494.3,11.17,-10.75,-12.53,0,*43
1529388125.83,28041,17.44,74490.8,11.17,-10.19,-11.81,0,*44
1529388127.12,28042,17.44,74492.0,11.19,-12.35,-13.87,0,*41
1529388128.38,28043,17.44,74492.3,11.19,-13.65,-15.21,0,*4E
1529388129.64,28044,17.44,74492.8,11.15,-11.85,-13.11,0,*4C
1529388130.9,28045,17.44,74494.8,11.15,-12.79,-14.11,0,*4A
1529388132.13,28046,17.44,74498.0,11.13,-11.85,-13.55,0,*48
1529388133.37,28047,17.44,74490.8,11.15,-10.31,-12.39,0,*4A
1529388134.63,28048,17.44,74498.5,11.15,-9.45,-10.89,0,*77
1529388135.88,28049,17.44,74496.5,11.19,-8.75,-9.83,0,*4A
1529388137.13,28050,17.44,74498.0,11.19,-7.69,-9.31,0,*49
1529388138.36,28051,17.44,74492.5,11.23,-7.19,-8.93,0,*4F
1529388139.58,28052,17.44,74498.0,11.23,-5.43,-6.81,0,*4C
1529388140.84,28053,17.44,74494.3,11.23,-4.05,-5.07,0,*43
1529388142.09,28054,17.44,74496.0,11.27,-3.71,-5.47,0,*40
1529388143.34,28055,17.44,74494.3,11.27,-3.91,-5.73,0,*48
1529388144.57,28056,17.44,74492.5,11.29,-5.19,-7.19,0,*4D
1529388145.8,28057,17.44,74494.5,11.29,-5.07,-7.19,0,*43
1529388147.02,28058,17.44,74490.8,11.29,-6.97,-8.89,0,*40
1529388148.24,28059,17.44,74490.0,11.29,-7.05,-8.59,0,*46
1529388149.43,28060,17.44,74488.3,11.29,-6.85,-8.33,0,*49
1529388150.63,28061,17.5,74498.3,11.29,-8.59,-9.67,0,*47
1529388151.83,28062,17.44,74494.0,11.25,-9.23,-9.23,0,*44
1529388153.07,28063,17.44,74492.3,11.25,-9.61,-9.37,0,*46
1529388154.27,28064,17.44,74494.0,11.25,-8.85,-8.75,0,*4D
1529388155.46,28065,17.44,74488.5,11.25,-8.75,-8.75,0,*43
1529388156.66,28066,17.44,74492.0,11.25,-8.17,-7.83,0,*42
1529388157.91,28067,17.44,74490.0,11.25,-7.95,-7.61,0,*4A
1529388159.18,28068,17.44,74492.0,11.23,-7.95,-7.69,0,*4B
1529388160.4,28069,17.44,74494.0,11.21,-7.39,-6.85,0,*4D
1529388161.63,28070,17.44,74492.8,11.21,-6.73,-6.27,0,*42
1529388162.9,28071,17.44,74492.5,11.19,-7.01,-7.31,0,*4A
1529388164.19,28072,17.44,74492.0,11.19,-5.85,-5.81,0,*4E
1529388165.47,28073,17.44,74492.5,11.19,-5.27,-5.27,0,*4B
1529388166.73,28074,17.44,74494.5,11.19,-6.19,-6.59,0,*48
1529388167.95,28075,17.44,74494.3,11.17,-6.23,-6.77,0,*42
1529388169.18,28076,17.44,74492.5,11.17,-6.23,-7.15,0,*44
1529388170.4,28077,17.5,74498.5,11.13,-7.23,-7.99,0,*44
1529388171.66,28078,17.44,74494.5,11.15,-7.83,-8.07,0,*4F
1529388172.88,28079,17.44,74492.5,11.15,-8.29,-8.29,0,*4D
1529388174.12,28080,17.44,74492.3,11.15,-8.75,-8.81,0,*40
1529388175.36,28081,17.44,74496.5,11.17,-7.73,-7.87,0,*43
1529388176.58,28082,17.44,74498.3,11.17,-7.19,-7.01,0,*42
1529388177.84,28083,17.44,74494.0,11.19,-6.73,-5.31,0,*41
1529388179.06,28084,17.44,74494.0,11.21,-5.35,-3.63,0,*4D
1529388180.33,28085,17.44,74494.5,11.23,-5.07,-3.43,0,*4D
1529388181.59,28086,17.44,74494.0,11.23,-4.73,-3.55,0,*4B
1529388182.82,28087,17.44,74492.8,11.23,-4.17,-3.03,0,*4B
1529388184.07,28088,17.44,74492.8,11.27,-2.95,-1.83,0,*46
1529388185.32,28089,17.5,74492.3,11.27,-3.03,-1.87,0,*4D
1529388186.56,28090,17.44,74492.8,11.27,-2.39,-1.13,0,*40
1529388187.8,28091,17.44,74492.8,11.27,-2.83,-1.35,0,*44
1529388189.04,28092,17.44,74494.0,11.27,-2.39,-0.97,0,*7F
1529388190.25,28093,17.44,74492.8,11.27,-2.27,-0.45,0,*7E
1529388191.49,28094,17.44,74492.3,11.25,-1.87,-0.27,0,*76
1529388192.68,28095,17.44,74492.3,11.25,-0.81,-0.03,0,*76
1529388193.93,28096,17.44,74492.8,11.25,-1.05,-1.35,0,*4C
1529388195.15,28097,17.44,74492.0,11.21,-1.59,-2.03,0,*46
1529388196.35,28098,17.44,74492.8,11.21,-1.55,-2.19,0,*4E
1529388197.58,28099,17.44,74494.3,11.21,-2.07,-3.11,0,*42
1529388198.82,28100,17.44,74494.5,11.17,-2.59,-3.59,0,*41
1529388200.02,28101,17.44,74492.0,11.17,-3.39,-4.09,0,*45
1529388201.25,28102,17.44,74492.0,11.17,-2.51,-2.39,0,*4C
1529388202.5,28103,17.44,74492.5,11.19,-2.27,-1.43,0,*4C
1529388203.78,28104,17.44,74492.5,11.19,-3.59,-2.75,0,*45
1529388205.01,28105,17.44,74492.8,11.19,-4.25,-3.15,0,*4F
1529388206.23,28106,17.44,74492.0,11.21,-4.85,-4.09,0,*47
1529388207.45,28107,17.44,74494.3,11.23,-5.43,-4.29,0,*4D
1529388208.7,28108,17.5,74494.8,11.23,-6.31,-5.73,0,*4A
1529388209.98,28109,17.5,74494.8,11.23,-8.81,-6.93,0,*43
1529388211.21,28110,17.44,74492.5,11.21,-10.23,-7.91,0,*7B
1529388212.41,28111,17.44,74496.0,11.21,-7.53,-5.35,0,*47
1529388213.63,28112,17.44,74496.3,11.21,-4.85,-3.03,0,*4F
1529388214.85,28113,17.44,74498.5,11.23,-3.19,-2.27,0,*49
1529388216.07,28114,17.44,74494.8,11.27,-4.13,-3.11,0,*43
1529388217.32,28115,17.5,74494.3,11.27,-3.15,-1.83,0,*4A
1529388218.57,28116,17.44,74492.8,11.31,-3.07,-1.43,0,*41
1529388219.83,28117,17.44,74492.0,11.31,-3.11,-2.03,0,*40
1529388221.05,28118,17.44,74490.0,11.37,-2.87,-3.07,0,*42
1529388222.33,28119,17.5,74492.5,11.37,-3.67,-5.11,0,*4D
1529388223.56,28120,17.44,74492.3,11.35,-3.67,-6.51,0,*42
1529388224.81,28121,17.44,74492.0,11.35,-6.19,-9.45,0,*45
1529388226.04,28122,17.5,74496.8,11.31,-7.53,-9.67,0,*4D
1529388227.27,28123,17.44,74492.5,11.31,-10.23,-11.45,0,*44
1529388228.55,28124,17.44,74496.0,11.31,-9.53,-9.37,0,*40
1529388229.77,28125,17.44,74492.8,11.35,-7.31,-6.01,0,*45
1529388230.99,28126,17.44,74494.0,11.37,-4.99,-3.83,0,*4A
1529388232.27,28127,17.44,74490.8,11.37,-3.67,-2.75,0,*45
1529388233.51,28128,17.44,74492.5,11.41,-3.47,-2.39,0,*41
1529388234.77,28129,17.44,74492.5,11.39,-3.63,-2.63,0,*46
1529388236.01,28130,17.44,74492.8,11.41,-4.69,-3.75,0,*4A
1529388237.22,28131,17.5,74494.3,11.43,-5.65,-3.23,0,*47
1529388238.48,28132,17.5,74494.5,11.43,-5.03,-1.99,0,*47
1529388239.73,28133,17.44,74492.0,11.43,-3.43,-1.83,0,*4F
1529388240.95,28134,17.44,74494.0,11.45,-4.61,-3.79,0,*4E
1529388242.17,28135,17.44,74494.5,11.45,-6.77,-6.51,0,*45
1529388243.39,28136,17.44,74492.8,11.49,-8.37,-7.15,0,*41
1529388244.64,28137,17.44,74494.0,11.49,-7.87,-7.57,0,*42
1529388245.88,28138,17.5,74496.0,11.49,-7.01,-7.87,0,*4E
1529388247.15,28139,17.5,74496.0,11.49,-7.43,-7.77,0,*46
1529388248.4,28140,17.44,74492.5,11.49,-6.51,-7.57,0,*48
1529388249.62,28141,17.5,74498.3,11.47,-5.73,-6.31,0,*45
1529388250.84,28142,17.44,74494.5,11.49,-4.13,-4.65,0,*4C
1529388252.07,28143,17.5,74498.5,11.51,-5.15,-5.51,0,*45
1529388253.3,28144,17.5,74496.0,11.49,-4.45,-4.77,0,*4A
1529388254.54,28145,17.5,74494.8,11.49,-4.57,-4.93,0,*42
1529388255.76,28146,17.5,74496.3,11.47,-4.85,-5.35,0,*4D
1529388256.96,28147,17.5,74496.3,11.47,-4.33,-4.45,0,*47
1529388258.23,28148,17.5,74494.3,11.49,-5.03,-5.03,0,*47
1529388259.5,28149,17.5,74496.5,11.49,-5.31,-5.65,0,*47
1529388260.7,28150,17.44,74494.0,11.51,-6.47,-6.77,0,*44
1529388261.92,28151,17.44,74494.3,11.53,-6.55,-7.11,0,*45
1529388263.19,28152,17.44,74494.8,11.53,-7.27,-8.03,0,*4E
1529388264.4,28153,17.44,74492.8,11.53,-6.55,-7.53,0,*41
1529388265.64,28154,17.5,74492.5,11.53,-6.23,-7.53,0,*47
1529388266.91,28155,17.44,74492.0,11.57,-5.73,-6.93,0,*49
1529388268.14,28156,17.44,74492.8,11.57,-5.61,-6.73,0,*47
1529388269.41,28157,17.5,74498.3,11.57,-5.61,-6.93,0,*48
1529388270.63,28158,17.5,74494.3,11.51,-5.27,-6.59,0,*45
1529388271.87,28159,17.44,74492.0,11.51,-4.77,-5.93,0,*45
1529388273.13,28160,17.5,74496.8,11.49,-4.93,-6.27,0,*40
1529388274.35,28161,17.5,74498.0,11.47,-4.61,-5.85,0,*49
1529388275.59,28162,17.5,74496.5,11.47,-4.81,-5.73,0,*4D
1529388276.82,28163,17.5,74498.8,11.47,-5.07,-5.47,0,*44
1529388278.03,28164,17.5,74496.5,11.49,-4.13,-4.33,0,*4B
1529388279.23,28165,17.5,74494.8,11.47,-3.27,-3.23,0,*42
1529388280.47,28166,17.44,74494.3,11.49,-2.87,-2.75,0,*46
1529388281.66,28167,17.5,74496.3,11.51,-1.79,-1.55,0,*4D
1529388282.88,28168,17.5,74498.8,11.51,-2.19,-2.11,0,*44
1529388284.16,28169,17.5,74496.8,11.53,-2.07,-2.07,0,*4F
1529388285.38,28170,17.44,74496.0,11.53,-1.79,-1.67,0,*48
1529388286.6,28171,17.5,74496.8,11.57,-1.79,-1.75,0,*4E
1529388287.81,28172,17.5,74496.8,11.59,-3.39,-3.63,0,*40
1529388289.01,28173,17.5,74498.0,11.59,-2.79,-2.99,0,*40
1529388290.2,28174,17.5,74496.0,11.59,-3.03,-3.03,0,*49
1529388291.42,28175,17.5,74500.0,11.61,-3.23,-3.27,0,*47
1529388292.64,28176,17.5,74494.5,11.63,-2.87,-2.71,0,*4B
1529388293.87,28177,17.5,74496.5,11.63,-2.59,-2.31,0,*4D
1529388295.06,28178,17.5,74496.3,11.63,-3.23,-2.99,0,*4C
1529388296.3,28179,17.5,74500.3,11.65,-3.71,-3.51,0,*49
1529388297.55,28180,17.5,74498.3,11.67,-3.27,-2.71,0,*4D
1529388298.81,28181,17.5,74496.3,11.67,-2.95,-2.07,0,*45
1529388300.0,28182,17.5,74496.3,11.69,-2.91,-2.35,0,*4D
1529388301.23,28183,17.5,74492.3,11.69,-2.47,-2.15,0,*45
1529388302.45,28184,17.5,74492.8,11.71,-2.35,-1.51,0,*4D
1529388303.71,28185,17.5,74496.5,11.75,-2.07,-0.97,0,*72
1529388304.94,28186,17.5,74498.3,11.73,-3.03,-2.07,0,*49
1529388306.16,28187,17.5,74494.5,11.75,-4.33,-3.03,0,*4F
1529388307.4,28188,17.5,74498.8,11.79,-4.77,-3.95,0,*43
1529388308.62,28189,17.5,74496.3,11.79,-4.45,-3.79,0,*41
1529388309.84,28190,17.5,74496.0,11.79,-2.91,-2.35,0,*4F
1529388311.08,28191,17.5,74498.5,11.79,-2.67,-2.35,0,*47
1529388312.3,28192,17.5,74494.5,11.79,-2.35,-1.79,0,*48
1529388313.56,28193,17.5,74494.0,11.79,-1.99,-1.55,0,*42
1529388314.78,28194,17.5,74494.8,11.81,-2.35,-1.99,0,*47
1529388316.0,28195,17.5,74498.0,11.81,-3.91,-3.43,0,*4C
1529388317.19,28196,17.5,74498.0,11.81,-3.95,-3.19,0,*44
1529388318.42,28197,17.5,74492.5,11.81,-3.75,-2.75,0,*40
1529388319.67,28198,17.5,74492.3,11.81,-3.55,-2.63,0,*4A
1529388320.94,28199,17.5,74494.3,11.87,-3.71,-2.71,0,*48
1529388322.14,28200,17.5,74494.5,11.85,-4.61,-4.13,0,*4D
1529388323.36,28201,17.5,74492.3,11.87,-5.55,-5.35,0,*4D
1529388324.58,28202,17.5,74494.3,11.85,-4.61,-4.77,0,*4D
1529388325.82,28203,17.5,74492.8,11.87,-4.99,-5.11,0,*48
1529388327.04,28204,17.5,74496.0,11.85,-6.19,-6.89,0,*45
1529388328.26,28205,17.5,74494.5,11.85,-6.89,-7.57,0,*4F
1529388329.44,28206,17.5,74496.0,11.85,-8.33,-8.33,0,*4E
1529388330.66,28207,17.5,74498.5,11.85,-8.59,-7.95,0,*40
1529388331.9,28208,17.5,74498.3,11.85,-9.83,-8.11,0,*4A
1529388333.11,28209,17.5,74494.8,11.81,-9.61,-8.29,0,*48
1529388334.3,28210,17.5,74496.8,11.81,-9.05,-8.63,0,*4C
1529388335.53,28211,17.5,74498.8,11.79,-9.01,-8.41,0,*4E
1529388336.72,28212,17.5,74494.3,11.81,-9.75,-9.05,0,*48
1529388337.95,28213,17.5,74498.8,11.79,-9.71,-9.01,0,*4E
1529388339.15,28214,17.5,74492.0,11.81,-8.89,-8.63,0,*4D
1529388340.33,28215,17.5,74492.5,11.81,-9.23,-8.75,0,*4A
1529388341.55,28216,17.5,74498.5,11.81,-9.57,-8.89,0,*49
1529388342.77,28217,17.5,74494.5,11.79,-9.23,-8.55,0,*4D
1529388343.98,28218,17.5,74496.0,11.81,-8.41,-7.69,0,*40
1529388345.26,28219,17.5,74500.8,11.79,-7.61,-7.35,0,*42
1529388346.5,28220,17.5,74498.3,11.81,-7.69,-7.95,0,*4D
1529388347.71,28221,17.5,74496.5,11.79,-8.67,-9.23,0,*49
1529388348.96,28222,17.5,74494.5,11.79,-7.69,-8.63,0,*4E
1529388350.19,28223,17.5,74496.3,11.79,-10.15,-10.89,0,*4F
1529388351.49,28224,17.5,74494.8,11.79,-10.67,-10.75,0,*4E
1529388352.72,28225,17.5,74492.8,11.75,-10.49,-10.57,0,*4F
1529388353.93,28226,17.5,74492.8,11.75,-9.89,-9.79,0,*4C
1529388355.15,28227,17.5,74498.3,11.75,-8.71,-8.71,0,*42
1529388356.37,28228,17.5,74496.0,11.75,-8.21,-8.21,0,*4D
1529388357.64,28229,17.5,74494.3,11.75,-7.77,-7.91,0,*44
1529388358.89,28230,17.5,74490.5,11.79,-7.73,-8.17,0,*45
1529388360.14,28231,17.5,74490.3,11.79,-7.15,-8.11,0,*42
1529388361.39,28232,17.5,74494.3,11.79,-6.39,-7.61,0,*46
1529388362.64,28233,17.5,74488.3,11.81,-5.89,-7.35,0,*49
1529388363.86,28234,17.5,74496.3,11.79,-6.43,-7.87,0,*45
1529388365.09,28235,17.5,74492.5,11.79,-7.49,-8.37,0,*4B
1529388366.36,28236,17.5,74490.8,11.79,-7.69,-7.95,0,*4D
1529388367.58,28237,17.5,74494.8,11.79,-7.87,-7.83,0,*4B
1529388368.8,28238,17.5,74494.3,11.81,-7.05,-6.89,0,*42
1529388370.01,28239,17.5,74494.5,11.81,-7.49,-7.27,0,*4E
1529388371.24,28240,17.5,74488.8,11.81,-6.01,-5.89,0,*4B
1529388372.49,28241,17.5,74494.5,11.87,-5.81,-5.55,0,*46
1529388373.68,28242,17.5,74496.3,11.85,-6.89,-6.89,0,*4E
1529388374.93,28243,17.5,74490.5,11.85,-7.69,-7.43,0,*47
1529388376.12,28244,17.5,74492.8,11.81,-6.89,-6.89,0,*4C
1529388377.34,28245,17.5,74492.8,11.79,-6.39,-6.43,0,*47
1529388378.59,28246,17.5,74494.5,11.79,-6.27,-6.77,0,*4C
1529388379.8,28247,17.5,74492.8,11.81,-6.69,-7.01,0,*40
1529388381.02,28248,17.5,74496.5,11.81,-6.63,-6.55,0,*45
1529388382.26,28249,17.5,74494.3,11.81,-7.43,-7.99,0,*46
1529388383.48,28250,17.5,74492.8,11.85,-7.11,-7.31,0,*4F
1529388384.67,28251,17.5,74496.0,11.85,-8.33,-8.59,0,*40
1529388385.94,28252,17.5,74498.8,11.87,-9.41,-9.53,0,*4E
1529388387.18,28253,17.5,74498.5,11.87,-9.53,-9.97,0,*44
1529388388.38,28254,17.5,74492.3,11.89,-9.75,-10.23,0,*7E
1529388389.64,28255,17.5,74494.3,11.89,-10.67,-11.63,0,*41
1529388390.87,28256,17.5,74496.5,11.91,-10.57,-11.15,0,*49
1529388392.11,28257,17.5,74496.0,11.91,-9.93,-10.41,0,*78
1529388393.33,28258,17.5,74498.5,11.91,-8.75,-9.71,0,*45
1529388394.56,28259,17.5,74498.5,11.89,-9.15,-10.45,0,*75
1529388395.78,28260,17.5,74494.8,11.89,-10.23,-11.73,0,*46
1529388397.02,28261,17.5,74496.5,11.91,-12.43,-13.83,0,*47
1529388398.25,28262,17.5,74492.3,11.89,-11.19,-12.11,0,*4B
1529388399.47,28263,17.5,74496.3,11.89,-12.11,-12.43,0,*46
1529388400.7,28264,17.5,74492.3,11.91,-13.19,-13.69,0,*48
1529388401.92,28265,17.5,74496.8,11.89,-13.01,-13.69,0,*49
1529388403.17,28266,17.5,74492.0,11.89,-13.83,-14.55,0,*48
1529388404.41,28267,17.5,74492.8,11.89,-14.15,-14.75,0,*43
1529388405.6,28268,17.5,74490.3,11.89,-13.69,-14.11,0,*42
1529388406.84,28269,17.5,74492.3,11.87,-14.11,-14.61,0,*42
1529388408.06,28270,17.5,74492.8,11.85,-15.01,-15.63,0,*4B
1529388409.31,28271,17.5,74494.3,11.79,-14.37,-15.25,0,*4F
1529388410.57,28272,17.5,74492.0,11.79,-15.25,-16.13,0,*48
1529388411.79,28273,17.5,74490.5,11.75,-15.11,-16.03,0,*43
1529388413.05,28274,17.5,74492.0,11.73,-15.89,-17.21,0,*42
1529388414.29,28275,17.5,74488.8,11.73,-14.75,-15.75,0,*42
1529388415.52,28276,17.5,74492.0,11.69,-15.85,-16.83,0,*4E
1529388416.79,28277,17.5,74496.8,11.69,-13.97,-14.47,0,*40
1529388418.05,28278,17.5,74498.0,11.69,-12.11,-12.53,0,*43
1529388419.3,28279,17.5,74494.0,11.67,-7.99,-8.85,0,*48
1529388420.52,28280,17.5,74496.5,11.65,-6.23,-6.35,0,*49
1529388421.71,28281,17.5,74498.8,11.63,-5.43,-4.65,0,*4C
1529388422.93,28282,17.5,74496.8,11.63,-5.07,-3.31,0,*49
1529388424.12,28283,17.5,74496.5,11.65,-4.53,-2.43,0,*4A
1529388425.37,28284,17.5,74494.8,11.67,-3.43,-1.51,0,*49
1529388426.61,28285,17.5,74498.0,11.71,-1.63,0.55,0,*57
1529388427.87,28286,17.5,74496.3,11.71,-1.91,0.13,0,*5B
1529388429.13,28287,17.5,74494.8,11.71,-1.91,-0.27,0,*70
1529388430.36,28288,17.5,74498.3,11.71,-0.77,0.95,0,*62
1529388431.56,28289,17.5,74496.3,11.73,-0.61,1.71,0,*5D
1529388432.78,28290,17.5,74496.3,11.73,0.17,2.77,0,*7C
1529388433.98,28291,17.5,74502.8,11.81,-0.07,2.39,0,*66
1529388435.19,28292,17.5,74496.5,11.79,-0.29,2.27,0,*51
1529388436.39,28293,17.5,74496.5,11.81,-0.37,1.93,0,*54
1529388437.6,28294,17.5,74498.3,11.81,-0.53,1.71,0,*5D
1529388438.8,28295,17.5,74496.8,11.85,-0.37,2.39,0,*55
1529388440.04,28296,17.5,74502.3,11.87,-0.81,2.21,0,*50
1529388441.27,28297,17.5,74496.8,11.87,-0.85,2.31,0,*54
1529388442.5,28298,17.5,74498.3,11.91,-1.75,1.21,0,*60
1529388443.75,28299,17.5,74502.0,11.91,-0.27,2.47,0,*54
1529388444.96,28300,17.5,74498.8,11.89,-0.11,2.01,0,*5B
1529388446.18,28301,17.5,74498.5,11.89,0.55,2.25,0,*71
1529388447.37,28302,17.5,74498.5,11.87,0.43,1.75,0,*7D
1529388448.59,28303,17.5,74498.0,11.85,0.25,1.43,0,*7B
1529388449.8,28304,17.5,74492.8,11.81,0.33,1.43,0,*7F
1529388451.06,28305,17.5,74496.3,11.79,1.43,2.39,0,*41
1529388452.33,28306,17.5,74494.5,11.75,1.37,2.25,0,*40
1529388453.54,28307,17.5,74494.5,11.73,1.05,1.97,0,*4C
1529388454.77,28308,17.5,74492.3,11.73,1.71,2.47,0,*4E
1529388456.04,28309,17.5,74496.5,11.71,1.89,2.51,0,*4D
1529388457.28,28310,17.5,74494.5,11.69,2.17,2.73,0,*48
1529388458.46,28311,17.5,74492.0,11.65,2.35,2.99,0,*41
1529388459.72,28312,17.5,74494.5,11.67,2.85,3.45,0,*4B
1529388460.94,28313,17.5,74492.0,11.65,3.07,3.89,0,*43
1529388462.17,28314,17.5,74494.0,11.67,2.47,3.63,0,*47
1529388463.43,28315,17.5,74494.5,11.67,1.63,3.23,0,*47
1529388464.7,28316,17.5,74492.8,11.67,1.29,3.33,0,*4B
1529388465.93,28317,17.5,74496.0,11.67,1.05,3.23,0,*45
1529388467.19,28318,17.5,74494.8,11.67,2.47,4.59,0,*45
1529388468.43,28319,17.5,74494.3,11.67,2.95,4.93,0,*4D
1529388469.66,28320,17.5,74496.5,11.67,2.99,4.63,0,*44
1529388470.88,28321,17.5,74494.0,11.69,3.03,4.57,0,*4E
1529388472.12,28322,17.5,74492.0,11.69,2.43,3.97,0,*43
1529388473.33,28323,17.5,74490.0,11.69,2.55,4.07,0,*4B
1529388474.54,28324,17.5,74498.0,11.69,1.47,2.61,0,*4A
1529388475.78,28325,17.5,74494.3,11.69,1.55,2.85,0,*42
1529388477.04,28326,17.5,74490.3,11.71,1.93,3.23,0,*4F
1529388478.3,28327,17.5,74492.5,11.71,2.25,3.23,0,*40
1529388479.54,28328,17.5,74490.8,11.71,0.67,1.29,0,*73
1529388480.79,28329,17.5,74490.5,11.71,0.33,0.67,0,*48
1529388481.98,28330,17.5,74490.8,11.69,-0.07,0.13,0,*50
1529388483.21,28331,17.5,74494.3,11.67,-0.23,-0.07,0,*71
1529388484.39,28332,17.5,74488.5,11.65,-0.61,-0.45,0,*40
1529388485.61,28333,17.5,74492.8,11.65,-0.97,-0.73,0,*4D
1529388486.85,28334,17.5,74492.8,11.63,-2.59,-1.95,0,*45
1529388488.1,28335,17.5,74494.3,11.61,-3.27,-2.11,0,*41
1529388489.34,28336,17.5,74492.0,11.59,-2.67,-1.39,0,*45
1529388490.58,28337,17.5,74492.0,11.59,-1.87,-0.89,0,*73
1529388491.8,28338,17.5,74494.8,11.57,-0.45,0.33,0,*61
1529388493.03,28339,17.5,74496.5,11.53,-0.11,0.29,0,*6E
1529388494.23,28340,17.5,74496.5,11.53,-0.33,0.05,0,*5E
1529388495.42,28341,17.5,74498.0,11.51,-1.25,-0.61,0,*74
1529388496.62,28342,17.56,74498.0,11.53,-1.59,-0.61,0,*7E
1529388497.82,28343,17.5,74496.5,11.51,-1.79,-0.49,0,*75
1529388499.08,28344,17.56,74496.5,11.53,-0.85,0.47,0,*61
1529388500.32,28345,17.5,74494.8,11.53,0.17,1.25,0,*73
1529388501.57,28346,17.5,74488.0,11.53,0.17,1.21,0,*74
1529388502.82,28347,17.5,74488.8,11.53,-0.23,0.79,0,*63
1529388504.04,28348,17.5,74494.3,11.53,-0.49,0.29,0,*65
1529388505.25,28349,17.5,74492.3,11.51,-0.45,0.17,0,*67
1529388506.49,28350,17.5,74494.3,11.53,-1.09,-0.81,0,*76
1529388507.72,28351,17.56,74494.3,11.51,-1.35,-0.93,0,*79
1529388508.97,28352,17.5,74490.8,11.53,-1.35,-0.49,0,*7F
1529388510.18,28353,17.56,74494.3,11.51,-2.19,-0.85,0,*71